Regional Weather Roundup
Issued by NWS Pendleton, OR

Home | Current Version | Previous Version | Text Only | Print | Product List | Glossary On
Versions: 1 2 3 4 5 6 7 8 9 10 11 12 13 14 15 16 17 18 19 20 21 22 23 24 25 26 27 28 29 30 31 32 33 34 35 36 37 38 39 40 41 42 43 44 45 46 47 48 49 50
000
ASUS46 KPDT 031025
RWRPDT
PENDLETON REGIONAL WEATHER ROUNDUP
NATIONAL WEATHER SERVICE PENDLETON OREGON
300 AM PDT TUE AUG 3 2021

NOTE: FAIR INDICATES FEW OR NO CLOUDS BELOW 12,000 FEET WITH NO
SIGNIFICANT WEATHER AND/OR OBSTRUCTIONS TO VISIBILITY.

# INDICATES UNOFFICIAL STATION AND DATA

WAZ520-031110-
EAST SLOPES OF WASHINGTON CASCADES

CITY            SKY/WX      TMP DP  RH  WIND    PRES   REMARKS
#BULLFROG       N/A         59  53  80  CALM    N/A
#EASTON DOT     N/A         63  57  81  CALM    N/A
#ELK HTS DOT    N/A         66  66  100 CALM    N/A
#GLENWOOD       N/A         59  54  83  CALM    29.98S
#NELSON 3SW     N/A         64  49  58  CALM    30.14S
#NILE           N/A         63  51  65  CALM    29.46R
#TROUT LAKE 1NE N/A         63  56  78  CALM    29.96S
#TROUT LAKE 1E  N/A         59  53  80  CALM    30.10F
$$

WAZ521-031110-
SIMCOE HIGHLANDS

CITY            SKY/WX      TMP DP  RH  WIND    PRES   REMARKS
#SATUS PASS DOT N/A         68  48  49  CALM    N/A
#CENTERVILLE 1SWN/A         64  51  63  CALM    29.90S
#LYLE 6NE       N/A         71  63  76  CALM    29.95S
#PITT 4SE       N/A         69  60  73  CALM    29.95S
$$

WAZ026-031110-
KITTITAS VALLEY

CITY            SKY/WX      TMP DP  RH  WIND    PRES   REMARKS
ELLENSBURG AP   FAIR        68  53  59  S3      30.07S
#ELLENSBURG CWU N/A         65  55  70  CALM    29.93S
#ELLENSBURG 3NE N/A         67  53  61  CALM    28.15S
#ELLENSBURG 1E  N/A         62  54  75  CALM    30.00R
#KITTITAS 3S    N/A         58  55  90  CALM    29.97S
#MANASTASH RDG  N/A         76  53  45  W12     N/A
#ROCKY CYN DOT  N/A         67  57  70  W6      N/A
#RYEGRASS DOT   N/A         70  53  55  W6      N/A
$$

WAZ027-031110-
YAKIMA VALLEY

CITY            SKY/WX      TMP DP  RH  WIND    PRES   REMARKS
SUNNYSIDE AP    FAIR        65  63  93  NE3     30.00S
YAKIMA AIRPORT  FAIR        68  52  57  W9      30.03S
YAKIMA-VAGABOND FAIR        71  48  44  SW3     30.03S
#MABTON         N/A         71  60  68  CALM    29.98F
#NACHES 2SW     N/A         73  52  48  W8      30.08S
#OUTLOOK DOT    N/A         70  66  87  CALM    N/A
#PARKER DOT     N/A         81  51  35  S7      N/A
#TERRACE HTS    N/A         70  60  71  CALM    29.93S
#TOPPENISH      N/A         71  64  79  CALM    29.88S
#I82 S UMTANUM RN/A         77  55  47  N8      N/A
#UNION GAP DOT  N/A         67  61  81  N2      N/A
#ZILLAH DOT     N/A         69  61  76  SE1     N/A
$$

WAZ028-031110-
LOWER COLUMBIA BASIN...WASHINGTON

CITY            SKY/WX      TMP DP  RH  WIND    PRES   REMARKS
PASCO           FAIR        68  63  84  N3      29.98R HAZE
PROSSER AWOS    N/A         66  64  93  CALM    30.02S
RICHLAND AWOS   FAIR        73  62  68  CALM    29.98S
#BASIN CITY 5SW N/A         68  62  81  CALM    29.98S
#BENTON CITY    N/A         73  58  59  CALM    29.85R
#CONNELL 5N     N/A         66  54  65  CALM    29.95S
#CONNELL 5NW    N/A         65  56  73  CALM    29.91R
#ELTOPIA 6NW    N/A         72  60  66  CALM    28.97S
#KAHLOTUS       N/A         70  50  49  S7      29.95S
#KENNEWICK 3S   N/A         77  53  43  CALM    29.94R
#PROSSER DOT    N/A         69  62  78  CALM    N/A
#SAGEMOOR 2W    N/A         73  61  66  N1      29.81S
#TOUCHET 2S     N/A         66  58  75  CALM    29.93R
$$

WAZ029-031110-
FOOTHILLS OF THE BLUES...WASHINGTON

CITY            SKY/WX      TMP DP  RH  WIND    PRES   REMARKS
WALLA WALLA AP  FAIR        77  55  47  E6      30.01S
#CLYDE 6NW      N/A         68  53  59  NW1     29.93S
#DELANEY DOT    N/A         65  53  65  CALM    N/A
#LOWDEN 2SE     N/A         69  60  73  CALM    29.95R
#PRESCOTT       N/A         71  55  57  CALM    29.93S
#WALLA WALLA 5E N/A         73  58  59  CALM    N/A
#WHITMAN MISSIONN/A         70  62  76  CALM    29.96R
$$

WAZ030-031110-
BLUE MOUNTAINS...WASHINGTON

CITY            SKY/WX      TMP DP  RH  WIND    PRES   REMARKS
$$

ORZ009-041-WAZ024-031110-
COLUMBIA RIVER GORGE

CITY            SKY/WX      TMP DP  RH  WIND    PRES   REMARKS
HOOD RIVER AP   FAIR        64  55  73  S3      30.02R
THE DALLES AP   FAIR        79  63  58  NW13    29.97S
#CELILO DOT     N/A         79  61  54  CALM    N/A
#LYLE           N/A         77  63  62  N1      30.00R
#MARYHILL       N/A         76  55  48  N2      N/A
#RUFUS DOT      N/A         78  53  42  S3      N/A

$$

ORZ510-031110-
NORTH CENTRAL OREGON

CITY            SKY/WX      TMP DP  RH  WIND    PRES   REMARKS
#ANTELOPE       N/A         62  48  60  CALM    29.80S
#COW CYN RST AREN/A         73  43  34  SW2     N/A
#DUFUR          N/A         64  49  58  CALM    29.92S
#DUFUR 9E       N/A         77  55  47  CALM    29.97S
#GRASS VALLEY 1SN/A         71  45  39  S6      29.88S
#KENT DOT       N/A         72  41  33  CALM    N/A
#MORO SCHOOL    N/A         66  45  47  CALM    29.93F
#SHANIKO 5WSW   N/A         71  42  35  S9      N/A
#WAPANITIA AIRPON/A         69  50  51  W1      29.95S
#WASCO DOT      N/A         62  45  54  W1      N/A
#WASCO 5NE      N/A         75  46  36  SW6     29.91F
$$

ORZ511-031110-
CENTRAL OREGON

CITY            SKY/WX      TMP DP  RH  WIND    PRES   REMARKS
BEND AIRPORT    FAIR        61  50  67  S6      30.18S
MADRAS AIRPORT  FAIR        63  46  54  MISG    30.13S
PRINEVILLE AP   PTCLDY      57  50  77  CALM    30.16F
REDMOND AIRPORT FAIR        57  46  67  S3      30.14F
#ASHWOOD SCHOOL N/A         65  44  46  SE2     30.07S
#BEND-KIM LN    N/A         58  45  62  SW2     29.91S
#CULVER         N/A         64  50  60  CALM    29.42S
#PRINEVILLE     N/A         59  52  78  CALM    30.08R
#WARM SPRINGS   N/A         72  46  39  CALM    29.85R

$$


ORZ509-031110-
EAST SLOPES OF OREGON CASCADES

CITY            SKY/WX      TMP DP  RH  WIND    PRES   REMARKS
SISTERS AWOS    N/A         57  50  77  CALM    30.12R
SUNRIVER AWOS   CLOUDY      52  46  80  W5      30.26S
#BLUE BOX PASS  N/A         72  N/A N/A CALM    N/A
#LA PINE DOT    N/A         54  44  69  E2      N/A
#LAVA BUTTE DOT N/A         58  39  49  CALM    N/A
#SISTERS ODOT   N/A         56  46  69  CALM    N/A
#TUMALO 3W      N/A         71  45  39  S5      29.80F
#WANOGA BUTTE D N/A         64  39  40  N1      N/A

$$

ORZ044-031110-
LOWER COLUMBIA BASIN...OREGON

CITY            SKY/WX      TMP DP  RH  WIND    PRES   REMARKS
HERMISTON       FAIR        68  57  68  NE5     29.99S
#BOARDMAN SCHOOLN/A         70  54  57  CALM    29.91S
#ECHO 8SW       N/A         65  54  68  SW2     30.00F
#I-84 EX 198 DOTN/A         78  55  45  NE8     N/A
#UMATILLA       N/A         70  62  76  CALM    29.87F
$$

ORZ507-031110-
NORTHERN FOOTHILLS OF THE BLUES

CITY            SKY/WX      TMP DP  RH  WIND    PRES   REMARKS
PENDLETON AIRPT FAIR        74  49  41  SE10    30.04S
#ATHENA         N/A         67  55  65  CALM    29.97F
#CAYUSE         N/A         77  53  43  E7      29.92F
#HELIX SCHOOL   N/A         65  51  60  CALM    29.94F
#HELIX 3N       N/A         73  52  48  CALM    30.07S
#HOLDMAN 6E     N/A         75  52  45  CALM    29.73F
#M-FREEWATER 5SEN/A         77  57  50  NE5     30.01F
#PDT SUNRIDGE   N/A         70  50  49  CALM    29.99S
#PENDLETON 6SE  N/A         71  52  51  CALM    29.89S
#TUTUILLA       N/A         65  51  60  CALM    30.09S
#UMAPINE 2E     N/A         74  60  62  CALM    29.93S
#WESTON SCHOOL  N/A         76  52  43  CALM    29.67F

$$

ORZ508-031110-
SOUTHERN FOOTHILLS OF THE BLUES

CITY            SKY/WX      TMP DP  RH  WIND    PRES   REMARKS
#HEPPNER EOC    N/A         72  48  43  CALM    29.88F
#HEPPNER 4NE    N/A         72  48  43  E2      29.93F
#OLEX 4N        N/A         73  48  41  CALM    29.93S
#RUGGS 2SW      N/A         75  48  38  S10     29.98S

$$

ORZ502-503-031110-
BLUE MOUNTAINS

CITY            SKY/WX      TMP DP  RH  WIND    PRES   REMARKS
MEACHAM         FAIR        56  49  77  CALM    30.20S
#BATTLE MTN DOT N/A         64  46  52  S6      N/A
#LADD CYN SMT   N/A         61  57  87  CALM    N/A
#LADD CREEK ODOTN/A         65  51  60  W1      N/A
#N POWDER DOT   N/A         59  53  80  SW2     N/A
#TOLLGATE       N/A         63  50  62  CALM    30.27S
#TROY SCHOOL    N/A         67  57  70  CALM    29.84S
#WESTON 4E      N/A         74  52  46  CALM    29.90F
$$

ORZ505-031110-
JOHN DAY BASIN

CITY            SKY/WX      TMP DP  RH  WIND    PRES   REMARKS
JOHN DAY        FAIR        66  49  54  SE5     30.20S
#DAYVILLE SCHOOLN/A         60  55  84  CALM    30.09F
#MITCHELL 8NW   N/A         73  44  35  CALM    29.96F
#MONUMENT HS    N/A         63  50  62  CALM    29.85S
#MT. VERNON 5SE N/A         64  48  56  CALM    30.23S
$$

ORZ506-031110-
OCHOCO AND JOHN DAY HIGHLANDS

CITY            SKY/WX      TMP DP  RH  WIND    PRES   REMARKS
#BUCK CREEK DOT N/A         62  48  60  SE9     N/A
#HORSE RIDGE DO N/A         54  43  66  CALM    N/A
#KEYES SMT DOT  N/A         62  45  54  E2      N/A
#PAULINA ODOT   N/A         58  N/A N/A CALM    N/A
#PRAIRIE CITY   N/A         57  47  69  SE1     30.13S
#SENECA 9NW     N/A         49  44  83  CALM    30.00F
$$

ORZ049-031110-
GRANDE RONDE VALLEY

CITY            SKY/WX      TMP DP  RH  WIND    PRES   REMARKS
LA GRANDE       FAIR        64  55  73  CALM    30.15S
#COVE SCHOOL    N/A         67  49  52  W2      30.14S
#COVE 6NW       N/A         63  55  75  CALM    29.98S
#ELGIN 1E       N/A         63  53  70  CALM    N/A
#ISLAND CITY 4N N/A         64  60  87  CALM    30.03S
#LADD CYN DOT   N/A         68  54  61  SE9     N/A
#UNION 1S       N/A         66  56  70  CALM    29.97S
$$

ORZ050-031110-
WALLOWA COUNTY

CITY            SKY/WX      TMP DP  RH  WIND    PRES   REMARKS
JOSEPH AIRPORT  FAIR        59  46  62  S3      30.23S
#ENTERPRISE HS  N/A         59  52  78  CALM    29.88S
#IMNAHA SCHOOL  N/A         70  56  61  CALM    29.99S
#JOSEPH 3N      N/A         56  49  77  CALM    30.22S
#LOSTINE        N/A         61  54  78  CALM    29.80S
#LOSTINE 3SE    N/A         62  50  65  CALM    30.27S
#WALLOWA LAKE   N/A         66  46  48  S2      30.28S
#WALLOWA SCHOOL N/A         60  55  84  CALM    29.99R



$$


USA.gov is the U.S. government's official web portal to all federal, state and local government web resources and services.